Manor / Austin Executive, TX

7:23 AM CST on December 08, 2019 (GMT -0600)
Manor / Austin Executive

Weather History for KEDC - November, 2019

Change the Weather History Date:

Tuesday, November 12, 2019

  Actual Average (WUND) Record (WUND)
Temperature  
Mean Temperature 35 °F -  
Max Temperature 42 °F - - (-1)
Min Temperature 28 °F - - (-1)
Degree Days  
Heating Degree Days 30    
Moisture  
Dew Point 17 °F    
Average Humidity 52    
Maximum Humidity 80    
Minimum Humidity 31    
Precipitation  
Precipitation 0.00 in - - ()
Sea Level Pressure  
Sea Level Pressure 30.50 in    
Wind  
Wind Speed 15 mph (North)    
Max Wind Speed 25 mph    
Max Gust Speed 34 mph    
Visibility 10 miles    
Events      
Averages and records for this station are not official NWS values.
T = Trace of Precipitation, MM = Missing Value Source: NWS Daily Summary

Daily Weather History Graph

Daily Weather History Graph

Search for Another Location

Airport or City:

Astronomy

Nov. 12, 2019 Rise Set
Actual Time 6:53 AM CST 5:35 PM CST
Civil Twilight 6:28 AM CST 6:00 PM CST
Nautical Twilight 5:59 AM CST 6:29 PM CST
Astronomical Twilight 5:30 AM CST 6:57 PM CST
Moon 6:01 PM CST (11/12) 6:49 AM CST (11/12)
Length of Visible Light 11h 32m
Length of Day
10h 41m
Full, 100% of the Moon is Illuminated
Nov 12
Full
Nov 19
Last Quarter
Nov 26
New
Dec 4
First Quarter
Dec 11
Full

Hourly Weather History & Observations

Time (CST) Temp. Windchill Dew Point Humidity Pressure Visibility Wind Dir Wind Speed Gust Speed Precip Events Conditions
12:55 AM 32.0 °F 23.0 °F 26.6 °F 80% 30.46 in 10.0 mi North 11.5 mph 20.7 mph N/A   Overcast
1:15 AM 32.0 °F 22.1 °F 26.6 °F 80% 30.46 in 10.0 mi North 13.8 mph - N/A   Overcast
1:35 AM 32.0 °F 22.5 °F 24.8 °F 75% 30.47 in 10.0 mi North 12.7 mph 18.4 mph N/A   Overcast
1:55 AM 32.0 °F 23.0 °F 24.8 °F 75% 30.48 in 10.0 mi North 11.5 mph 20.7 mph N/A   Overcast
2:15 AM 32.0 °F 21.2 °F 24.8 °F 75% 30.47 in 10.0 mi North 16.1 mph 20.7 mph N/A   Overcast
2:35 AM 32.0 °F 23.0 °F 24.8 °F 75% 30.49 in 10.0 mi North 11.5 mph 20.7 mph N/A   Overcast
2:55 AM 32.0 °F 20.8 °F 24.8 °F 75% 30.48 in 10.0 mi North 17.3 mph - N/A   Mostly Cloudy
3:15 AM 32.0 °F 19.8 °F 23.0 °F 69% 30.49 in 10.0 mi North 20.7 mph 25.3 mph N/A   Mostly Cloudy
3:35 AM 32.0 °F 20.1 °F 23.0 °F 69% 30.50 in 10.0 mi North 19.6 mph 28.8 mph N/A   Overcast
3:55 AM 32.0 °F 20.1 °F 21.2 °F 64% 30.50 in 10.0 mi North 19.6 mph 28.8 mph N/A   Overcast
4:15 AM 32.0 °F 20.1 °F 21.2 °F 64% 30.50 in 10.0 mi North 19.6 mph 26.5 mph N/A   Mostly Cloudy
4:35 AM 32.0 °F 19.2 °F 19.4 °F 60% 30.50 in 10.0 mi North 23.0 mph 29.9 mph N/A   Mostly Cloudy
4:55 AM 32.0 °F 19.8 °F 19.4 °F 60% 30.51 in 10.0 mi North 20.7 mph 32.2 mph N/A   Mostly Cloudy
5:15 AM 32.0 °F 19.8 °F 19.4 °F 60% 30.51 in 10.0 mi North 20.7 mph 33.4 mph N/A   Mostly Cloudy
5:35 AM 30.2 °F 17.4 °F 19.4 °F 64% 30.53 in 10.0 mi North 20.7 mph 29.9 mph N/A   Scattered Clouds
5:55 AM 30.2 °F 16.2 °F 17.6 °F 60% 30.53 in 10.0 mi North 25.3 mph 31.1 mph N/A   Mostly Cloudy
6:15 AM 30.2 °F 17.4 °F 17.6 °F 60% 30.53 in 10.0 mi North 20.7 mph 28.8 mph N/A   Mostly Cloudy
6:35 AM 30.2 °F 17.4 °F 17.6 °F 60% 30.55 in 10.0 mi North 20.7 mph 28.8 mph N/A   Partly Cloudy
6:55 AM 30.2 °F 17.1 °F 17.6 °F 60% 30.56 in 10.0 mi North 21.9 mph 29.9 mph N/A   Clear
7:15 AM 30.2 °F 17.1 °F 17.6 °F 60% 30.57 in 10.0 mi North 21.9 mph 33.4 mph N/A   Clear
7:55 AM 30.2 °F 17.4 °F 15.8 °F 55% 30.58 in 10.0 mi North 20.7 mph 29.9 mph N/A   Clear
8:15 AM 30.2 °F 16.2 °F 15.8 °F 55% 30.59 in 10.0 mi North 25.3 mph 34.5 mph N/A   Clear
8:35 AM 30.2 °F 16.8 °F 15.8 °F 55% 30.59 in 10.0 mi North 23.0 mph 31.1 mph N/A   Clear
8:55 AM 30.2 °F 17.4 °F 15.8 °F 55% 30.59 in 10.0 mi North 20.7 mph 31.1 mph N/A   Clear
9:15 AM 30.2 °F 18.5 °F 15.8 °F 55% 30.60 in 10.0 mi North 17.3 mph 29.9 mph N/A   Clear
9:35 AM 32.0 °F 19.2 °F 15.8 °F 51% 30.60 in 10.0 mi North 23.0 mph 28.8 mph N/A   Clear
9:55 AM 32.0 °F 20.5 °F 15.8 °F 51% 30.61 in 10.0 mi North 18.4 mph 26.5 mph N/A   Clear
10:15 AM 32.0 °F 19.8 °F 15.8 °F 51% 30.60 in 10.0 mi North 20.7 mph 25.3 mph N/A   Clear
10:35 AM 32.0 °F 20.5 °F 15.8 °F 51% 30.59 in 10.0 mi North 18.4 mph 25.3 mph N/A   Clear
10:55 AM 32.0 °F 20.5 °F 15.8 °F 51% 30.59 in 10.0 mi North 18.4 mph - N/A   Clear
11:15 AM 32.0 °F 19.8 °F 15.8 °F 51% 30.59 in 10.0 mi North 20.7 mph 24.2 mph N/A   Clear
11:35 AM 33.8 °F 24.3 °F 15.8 °F 48% 30.59 in 10.0 mi North 13.8 mph 23.0 mph N/A   Clear
11:55 AM 35.6 °F 25.5 °F 15.8 °F 44% 30.58 in 10.0 mi North 17.3 mph - N/A   Clear
12:15 PM 35.6 °F 25.2 °F 15.8 °F 44% 30.56 in 10.0 mi North 18.4 mph 23.0 mph N/A   Clear
12:35 PM 37.4 °F 28.5 °F 15.8 °F 41% 30.55 in 10.0 mi North 15.0 mph 20.7 mph N/A   Clear
12:55 PM 37.4 °F 28.5 °F 15.8 °F 41% 30.54 in 10.0 mi North 15.0 mph 23.0 mph N/A   Clear
1:15 PM 39.2 °F 31.6 °F 15.8 °F 39% 30.53 in 10.0 mi North 12.7 mph 19.6 mph N/A   Clear
1:35 PM 39.2 °F 31.2 °F 15.8 °F 39% 30.52 in 10.0 mi North 13.8 mph 20.7 mph N/A   Clear
1:55 PM 41.0 °F 33.5 °F 15.8 °F 36% 30.51 in 10.0 mi North 13.8 mph 20.7 mph N/A   Clear
2:15 PM 41.0 °F 32.2 °F 15.8 °F 36% 30.50 in 10.0 mi North 18.4 mph - N/A   Clear
2:35 PM 41.0 °F 33.9 °F 14.0 °F 33% 30.50 in 9.0 mi NNW 12.7 mph - N/A   Clear
2:55 PM 42.8 °F 35.8 °F 15.8 °F 34% 30.49 in 10.0 mi North 13.8 mph - N/A   Clear
3:15 PM 42.8 °F 35.4 °F 14.0 °F 31% 30.48 in 10.0 mi North 15.0 mph 23.0 mph N/A   Clear
3:35 PM 42.8 °F 35.8 °F 14.0 °F 31% 30.48 in 10.0 mi North 13.8 mph - N/A   Clear
3:55 PM 42.8 °F 36.2 °F 14.0 °F 31% 30.47 in 10.0 mi North 12.7 mph 17.3 mph N/A   Clear
4:15 PM 42.8 °F 35.8 °F 14.0 °F 31% 30.47 in 10.0 mi North 13.8 mph 19.6 mph N/A   Clear
4:35 PM 42.8 °F 36.6 °F 14.0 °F 31% 30.46 in 10.0 mi North 11.5 mph - N/A   Clear
4:55 PM 41.0 °F 33.9 °F 12.2 °F 31% 30.46 in 10.0 mi North 12.7 mph - N/A   Clear
5:15 PM 41.0 °F 33.5 °F 12.2 °F 31% 30.45 in 10.0 mi North 13.8 mph - N/A   Clear
5:35 PM 39.2 °F 34.2 °F 14.0 °F 36% 30.45 in 10.0 mi NNE 6.9 mph - N/A   Clear
5:55 PM 37.4 °F 30.8 °F 15.8 °F 41% 30.45 in 10.0 mi NNE 9.2 mph - N/A   Clear
6:15 PM 37.4 °F 32.1 °F 15.8 °F 41% 30.44 in 10.0 mi North 6.9 mph - N/A   Clear
6:35 PM 35.6 °F 30.7 °F 15.8 °F 44% 30.44 in 10.0 mi North 5.8 mph - N/A   Clear
6:55 PM 35.6 °F 30.7 °F 17.6 °F 48% 30.44 in 10.0 mi North 5.8 mph - N/A   Clear
7:55 PM 35.6 °F 28.6 °F 15.8 °F 44% 30.44 in 10.0 mi North 9.2 mph - N/A   Clear
8:15 PM 33.8 °F 26.4 °F 15.8 °F 48% 30.44 in 10.0 mi North 9.2 mph - N/A   Clear
8:35 PM 33.8 °F 26.4 °F 15.8 °F 48% 30.43 in 10.0 mi NNE 9.2 mph - N/A   Clear
8:55 PM 32.0 °F 24.2 °F 15.8 °F 51% 30.43 in 10.0 mi NNE 9.2 mph - N/A   Clear
9:15 PM 32.0 °F 24.2 °F 15.8 °F 51% 30.43 in 10.0 mi NNE 9.2 mph - N/A   Clear
9:35 PM 32.0 °F 24.2 °F 17.6 °F 55% 30.43 in 10.0 mi NNE 9.2 mph - N/A   Clear
9:55 PM 32.0 °F 25.6 °F 17.6 °F 55% 30.43 in 10.0 mi NNE 6.9 mph - N/A   Clear
10:15 PM 32.0 °F 25.6 °F 17.6 °F 55% 30.43 in 10.0 mi North 6.9 mph - N/A   Clear
10:35 PM 32.0 °F 24.8 °F 17.6 °F 55% 30.43 in 10.0 mi North 8.1 mph - N/A   Clear
10:55 PM 32.0 °F 25.6 °F 17.6 °F 55% 30.43 in 10.0 mi NNE 6.9 mph - N/A   Clear
11:15 PM 30.2 °F 24.3 °F 17.6 °F 60% 30.43 in 10.0 mi NNE 5.8 mph - N/A   Clear
11:35 PM 28.4 °F 22.2 °F 19.4 °F 69% 30.43 in 10.0 mi North 5.8 mph - N/A   Clear
11:55 PM 30.2 °F 24.3 °F 17.6 °F 60% 30.42 in 10.0 mi NNE 5.8 mph - N/A   Clear